Home   Weather   Nelson   Past weeks

Flag for Canada Past Weather in Nelson, British Columbia, Canada — Yesterday and Last 2 Weeks

Now
39 °F

Chilly.


Feels Like: 31 °F
Forecast: 21 / 39 °F
Wind: 12 mph from Northwest

Location: Nelson

Current Time: Dec 3, 2016 at 6:07:27 pm

Latest Report: Dec 3, 2016 at 5:00 pm


Visibility: N/A

Pressure: 30.07 "Hg (28.06 "Hg at 560m altitude)

Humidity: 76%

Dew Point: 32 °F

Location of NelsonLocation

Past Weather in Nelson — Graph

°F

Nelson Temperature Yesterday

Maximum temperature yesterday: 36 °F (at 12:00 am)
Minimum temperature yesterday: 33 °F (at 6:00 am)
Average temperature yesterday: 34 °F

High & Low Weather Summary for the Past Weeks

 TemperatureHumidityPressure
High47 °F (Nov 28, 1:00 pm)99% (Nov 29, 4:00 am)30.35 "Hg (Nov 29, 4:00 am)
Low31 °F (Nov 29, 4:00 pm)62% (Nov 28, 1:00 pm)29.49 "Hg (Nov 27, 11:00 pm)
Average39 °F86%29.97 "Hg
* Reported Nov 18 4:00 pm — Dec 3 4:00 pm, Nelson, Weather by CustomWeather, © 2016

Note: Actual official high and low records may vary slightly from our data, if they occured in-between our weather recording intervals... More about our weather records

Advertising

Nelson Weather History for the Previous 24 Hours

Scroll right to see more
 ConditionsComfort  
Time TempWeatherWind HumidityBarometerVisibility
4:00 pm
Sat, Dec 3
39 °FChilly.10 mph74%30.07 "HgN/A
3:00 pm39 °FChilly.5 mph81%30.08 "HgN/A
2:00 pm39 °FChilly.7 mph75%30.10 "HgN/A
1:00 pm39 °FChilly.12 mph80%30.11 "HgN/A
12:00 pm36 °FChilly.12 mph83%30.11 "HgN/A
11:00 am38 °FChilly.10 mph79%30.12 "HgN/A
10:00 am38 °FChilly.7 mph83%30.13 "HgN/A
9:00 am37 °FChilly.8 mph82%30.11 "HgN/A
8:00 am37 °FChilly.10 mph81%30.09 "HgN/A
7:00 am37 °FChilly.8 mph81%30.08 "HgN/A
6:00 am37 °FChilly.10 mph82%30.06 "HgN/A
5:00 am36 °FChilly.9 mph84%30.06 "HgN/A
4:00 am36 °FChilly.8 mph82%30.05 "HgN/A
3:00 am35 °FChilly.9 mph90%30.04 "HgN/A
2:00 am36 °FChilly.7 mph82%30.05 "HgN/A
1:00 am34 °FChilly.7 mph91%30.06 "HgN/A
12:00 am35 °FChilly.8 mph87%30.06 "HgN/A
11:00 pm
Fri, Dec 2
34 °FChilly.9 mph90%30.07 "HgN/A
10:00 pm34 °FChilly.7 mph90%30.09 "HgN/A
9:00 pm35 °FChilly.6 mph90%30.08 "HgN/A
8:00 pm34 °FChilly.7 mph92%30.09 "HgN/A
7:00 pm34 °FChilly.10 mph91%30.09 "HgN/A
6:00 pm34 °FChilly.13 mph90%30.11 "HgN/A
Weather by CustomWeather, © 2016

See weather overviewHow to use our weather pages